Regional Weather Roundup
Issued by NWS

Home | Current Version | Previous Version | Graphics & Text | Print | Product List | Glossary On
Versions: 1 2 3 4 5 6 7 8 9 10 11 12 13 14 15 16 17 18 19 20 21 22 23 24 25 26 27 28 29 30 31 32 33 34 35 36 37 38 39 40 41 42 43 44 45 46 47 48 49 50
235
ASUS43 KBIS 211510
RWRND
NORTH DAKOTA REGIONAL WEATHER ROUNDUP
NATIONAL WEATHER SERVICE EASTERN NORTH DAKOTA/GRAND FORKS ND
1000 AM CDT SAT APR 21 2018

  NOTE: "FAIR" INDICATES FEW OR NO CLOUDS BELOW 12,000 FEET WITH NO
  SIGNIFICANT WEATHER AND/OR OBSTRUCTIONS TO VISIBILITY.

NDZ001>003-009>011-017-211600-
...NORTHWEST NORTH DAKOTA...

CITY           SKY/WX    TMP DP  RH WIND       PRES   REMARKS
WILLISTON      FAIR      49  39  68 S16G22    30.11F
MINOT          FAIR      48  37  65 S20       30.19F
MINOT AFB      FAIR      47  38  70 SW18      30.17F
$$

NDZ018>021-031>035-040>046-211600-
...SOUTHWEST NORTH DAKOTA...

CITY           SKY/WX    TMP DP  RH WIND       PRES   REMARKS
BISMARCK       FAIR      50  40  68 SE13      30.26F
DICKINSON      PTSUNNY   44  37  76 S23       30.15F
GARRISON         N/A     44  38  79 S13       30.20F
HETTINGER      CLOUDY    42  37  82 S15       30.22S
$$

NDZ004>008-012>016-024-026-027-054-211600-
...NORTHEAST NORTH DAKOTA...

CITY           SKY/WX    TMP DP  RH WIND       PRES   REMARKS
GRAND FORKS    CLOUDY    39  39 100 S12       30.34F WCI  32
GRAND FORKS AF CLOUDY    40  38  94 S12       30.33F WCI  33
DEVILS LAKE    FAIR      48  38  68 S10       30.30F
$$

NDZ022-023-025-028>030-036>039-047>053-211600-
...SOUTHEAST NORTH DAKOTA...

CITY           SKY/WX    TMP DP  RH WIND       PRES   REMARKS
JAMESTOWN      FAIR      50  39  66 S10       30.31F
FARGO          CLOUDY    44  36  73 S6        30.37F
WAHPETON       FAIR      41  34  75 SE6       30.39S
$$




USA.gov is the U.S. government's official web portal to all federal, state and local government web resources and services.